SENTINEL-1B (41456 NORAD) Tracking and Keplerian Element Data

This shows tracking and keplerian element data for the satellite.

Feedback or suggestion? Click here.




ElementValue
Catalog41456
NameSENTINEL-1B
Epoch Orbit11855
Epoch Day198.81262029
Epoch Year2018
RAAN205.6324
Inclination98.1825
Eccentricity0.0001363
Argument of Perigee86.6914
Mean Anonmoly273.4455
Mean Motion14.5919677
Decay Rate-1.35E-06
L11 41456U 16025A 18198.81262029 -.00000135 00000-0 -18822-4 0 9997
L22 41456 98.1825 205.6324 0001363 86.6914 273.4455 14.59196770118553

Live tracking and technical data element details for SENTINEL-1B (NORAD 41456). SENTINEL-1B can be tracked NOW for your location showing map with azimuth and elevation plus other details from your city location.

Track the satellite on the map from your city or location and see movement details for azimuth, elevation, latitude, longitude, range, height, and movement on the map or in text.







IsCatalogInMostPopularTable: catalog: 41456, numindb: 59
Update: records affected: 1



GetName: 41456 SENTINEL-1B

Hit Count: updated at: Sat, 21 Jul 2018 07:38:53 GMT